Regional Weather Roundup
Issued by NWS

Home | Current Version | Previous Version | Text Only | Print | Product List | Glossary Off
Versions: 1 2 3 4 5 6 7 8 9 10 11 12 13 14 15 16 17 18 19 20 21 22 23 24 25 26 27 28 29 30 31 32 33 34 35 36 37 38 39 40 41 42 43 44 45 46 47 48 49 50

000
ASUS44 KMEG 061410
RWRTN
TENNESSEE HOURLY STATE WEATHER ROUNDUP
NATIONAL WEATHER SERVICE MEMPHIS TN
900 AM CDT MON JUL 06 2015

TNZ002-004-019-021-049-052-054-088>092-061500-
WEST TENNESSEE

CITY           SKY/WX    TMP DP  RH WIND       PRES   REMARKS
MEMPHIS INTL   CLOUDY    75  70  84 S8        30.13F
NWS MEMPHIS      N/A     75 N/A N/A MISG        N/A
JACKSON        CLOUDY    74  68  81 S6        30.14S
DYERSBURG        N/A    N/A N/A N/A MISG        N/A
PARIS          MOSUNNY   75  70  83 S5        30.12F
LEXINGTON      CLOUDY    72  70  94 SW6       30.15R
$$

TNZ008-025-027-028-033-062-065-066-061500-
NORTH MIDDLE TENNESSEE

CITY           SKY/WX    TMP DP  RH WIND       PRES   REMARKS
NASHVILLE      PTSUNNY   76  72  87 CALM      30.15S
CLARKSVILLE    MOSUNNY   75  71  87 SW5       30.12F
SMYRNA         MOSUNNY   77  73  87 CALM      30.16S
COOKEVILLE     CLOUDY    75  73  94 SW3       30.16S
CROSSVILLE     PTSUNNY   76  68  76 W8        30.21R
$$

TNZ061-075-076-078-094-096-097-061500-
SOUTH MIDDLE TENNESSEE

CITY           SKY/WX    TMP DP  RH WIND       PRES   REMARKS
FAYETTEVILLE   CLOUDY    72  70  94 S3        30.18R
TULLAHOMA      CLOUDY    73  70  88 CALM      30.19S
WINCHESTER     CLOUDY    75  70  83 S3        30.18S VSB 1
MCMINNVILLE    CLOUDY    73  73 100 CALM      30.18S
COLUMBIA       CLOUDY    73  73 100 SW5       30.15R
SHELBYVILLE    CLOUDY    73  72  94 CALM        N/A
$$

TNZ017-018-042-046-047-061500-
NORTHEAST TENNESSEE

CITY           SKY/WX    TMP DP  RH WIND       PRES   REMARKS
TRI CITIES     PTSUNNY   73  67  81 VRB5      30.18F
ELIZABETHTON   CLOUDY    70  64  83 SW5       30.19S
$$

TNZ012-013-036-069-073-074-061500-
CENTRAL EAST TENNESSEE

CITY           SKY/WX    TMP DP  RH WIND       PRES   REMARKS
KNOXVILLE      CLOUDY    72  68  87 SW7       30.16S
OAK RIDGE      MOSUNNY   76  69  79 VRB3      30.17S
GATLINBURG     SUNNY     77  66  69 SW6       30.16S
MORRISTOWN     MOSUNNY   72  70  94 W7        30.19S
$$

TNZ083-085-099-061500-
SOUTHEAST TENNESSEE

CITY           SKY/WX    TMP DP  RH WIND       PRES   REMARKS
CHATTANOOGA    PTSUNNY   77  69  76 CALM      30.17S
$$

SKY/WX REPORTED AS FAIR MEANS FEW OR NO CLOUDS BELOW
12 THOUSAND FEET.




USA.gov is the U.S. government's official web portal to all federal, state and local government web resources and services.